Location: Flensburg
(54.6357°N, 9.5142°E)
Time: 03:25:26
(UTC+01:00)

ISS - Pass Details

Date: 09 January 2018
Orbit: 402 x 407 km, 51.6° (Epoch: 22 January)

Event Time Altitude Azimuth Distance (km) Brightness Sun altitude
Exits shadow 07:21:16 12° 258° (WSW) 1,364 -1.6 -10.7°
Maximum altitude 07:23:37 23° 207° (SSW) 914 -2.1 -10.4°
Drops below altitude 10° 07:26:18 10° 152° (SSE) 1,466 -0.2 -10.0°
Sets 07:28:38 0° 138° (SE) 2,325 1.4 -9.7°
